www.pogodaiklimat.ru

Погода и климат >> Архив погоды >> Португалия >> Овар


ПОГОДА в Оваре

  • Прогноз погоды в Оваре
  • Монитор погоды в Оваре

АРХИВ ПОГОДЫ в Оваре

Время (UTC), дата Ветер
(напр.,м/с)
 
Видим.   Явления Облачность Т
(С)
Тd
(С)
f
(%)
Тe
(С)
Тes
(С)
Комфортность P
(гПа)
Po
(гПа)
Тmin
(С)
Tmax
(С)
R
(мм)
R24
(мм)
S
(см)
03 13.09 Ю 2 10 км ясно +16.2 +12.5 79 +16 +16 1022.2 1020.1
06 13.09 С 1 10 км ясно +15.2 +12.5 84 +16 +16 1022.2 1020.2 +14.6
09 13.09 Ю 2 10 км 1/0
[Ci fib]
+26.2 +11.8 41 +28 +32 жарко 1022.1 1020.1
12 13.09 СВ 4 10 км 3/0
[Ci]
+32.0 +13.1 32 +33 +41 жарко 1020.6 1018.7
15 13.09 С 9 10 км 8/3 540 м
[Cu med, cong Ci fib]
+27.0 +13.7 44 +29 +30 жарко 1018.6 1016.7
18 13.09 С 6 10 км 5/4 660 м
[Cu Sc Ci fib]
+21.4 +14.4 64 +24 +24 комфорт 1017.9 1016.0 +33.4
21 13.09 нст 1 10 км 6/4 1050 м
[Sc Ci fib]
+19.4 +14.6 74 +22 +22 комфорт 1019.7 1017.7
03 14.09 нст 1 10 км 8/0
[Ac trans Ci fib]
+20.4 +14.3 68 +24 +24 комфорт 1020.2 1018.2
06 14.09 С 1 10 км 4/0
[Ac trans Ci fib]
+19.2 +14.0 72 +22 +22 комфорт 1020.2 1018.2 +19.2
09 14.09 СВ 4 10 км 1/0
[Ac trans]
+25.4 +14.0 49 +28 +31 жарко 1020.7 1018.7
12 14.09 СВ 4 10 км 4/0
[Ac trans]
+28.0 +14.6 44 +30 +37 жарко 1019.5 1017.6
15 14.09 С 4 10 км 6/3 900 м
[Cu Sc Ac trans Ci fib]
+26.2 +14.2 48 +29 +32 жарко 1018.0 1016.0
18 14.09 С 6 10 км 8/1 900 м
[Cu med, cong Ac trans Ci fib]
+23.0 +13.3 54 +26 +26 жарко 1017.7 1015.7 +28.8
21 14.09 Ю 3 10 км 6/0
[Ac trans]
+22.6 +15.0 62 +26 +26 жарко 1019.0 1017.0
00 15.09 С 2 10 км 1/0
[Ac trans]
+19.4 +15.3 77 +22 +22 комфорт 1018.5 1016.5
03 15.09 С 1 10 км 1/0
[Ci fib]
+15.6 +13.9 90 +16 +16 1018.2 1016.2
06 15.09 С 1 10 км 1/0
[Ac trans]
+16.0 +15.0 94 +17 +17 1018.2 1016.2 +15.0
09 15.09 Ю 2 10 км 1/0
[Ac trans]
+23.8 +16.4 63 +27 +32 жарко 1018.9 1016.9
12 15.09 СЗ 4 10 км 1/1 900 м
[Cu med, cong Ac lent]
+25.6 +15.3 53 +29 +36 душно 1018.5 1016.5
15 15.09 С 6 10 км 3/3 1050 м
[Cu med, cong]
+25.0 +14.6 52 +28 +30 жарко 1017.4 1015.4
18 15.09 С 4 10 км 1/1 1200 м
[Sc diur, vesp]
+23.6 +13.6 53 +26 +26 жарко 1017.3 1015.3 +26.8
21 15.09 С 1 10 км 1/0
[Ci fib]
+19.4 +13.9 70 +22 +22 комфорт 1018.0 1016.0
00 16.09 штиль 0 10 км 3/0
[Ci fib]
+17.4 +13.8 79 +17 +17 1017.7 1015.7
03 16.09 С 1 10 км 3/3 900 м
[Sc Ac trans]
+17.0 +14.4 85 +18 +18 1017.6 1015.6
06 16.09 С 1 10 км 1/1 900 м
[Sc Ac trans]
+14.4 +13.4 94 +15 +15 1018.4 1016.4 +14.4
09 16.09 ЮВ 3 10 км 6/0
[Ac cast]
+21.2 +15.5 70 +24 +27 комфорт 1018.2 1016.1
12 16.09 З 4 10 км 6/6 60 м
[Cb calv]
+20.8 +16.8 78 +25 +28 комфорт 1018.2 1016.2
15 16.09 СЗ 2 10 км 8/6 60 м
[Cb calv Ac und]
+19.4 +16.6 84 +22 +24 комфорт 1017.1 1015.1
18 16.09 СЗ 3 10 км 8/8 60 м
[Sc Ci fib]
+17.8 +16.5 92 +18 +18 1016.4 1014.4 +24.0
21 16.09 нст 1 800 м туман 10/10 60 м
[St]
+16.4 +16.4 100 +17 +17 1017.6 1015.5
00 17.09 С 1 800 м туман 10/10 60 м
[St]
+16.6 +16.6 100 +17 +17 1017.2 1015.2
03 17.09 нст 1 500 м туман 10/10 60 м
[St]
+16.6 +16.3 98 +17 +17 1015.9 1013.8
06 17.09 С 1 200 м туман 10/10 60 м
[St]
+16.4 +16.4 100 +17 +17 1015.7 1013.6 +16.4
09 17.09 нст 1 200 м туман 9/9 60 м
[St]
+16.0 +16.0 100 +17 +17 1016.9 1014.9
12 17.09 З 3 900 м туман местами 8/5 210 м
[Cu med, cong Ci fib]
+18.4 +16.5 89 +19 +24 1016.9 1014.8
15 17.09 СЗ 4 7000 м туман местами 6/5 150 м
[Cb calv Ci ing]
+18.4 +16.2 87 +19 +22 1015.5 1013.5
18 17.09 СЗ 4 300 м туман 10/10 60 м
[St]
+16.4 +16.1 98 +16 +16 1015.5 1013.5 +19.2
21 17.09 нст 1 700 м туман 10/10 30 м
[St]
+15.6 +15.6 100 +16 +16 1015.7 1013.7
00 18.09 штиль 0 200 м туман 10/10 30 м
[St]
+15.6 +15.6 100 +15 +15 1015.4 1013.4
03 18.09 нст 1 100 м туман 10/10 30 м
[St]
+15.2 +15.2 100 +16 +16 1015.0 1013.0
06 18.09 С 1 100 м туман 10/10 30 м
[St]
+14.8 +14.8 100 +15 +15 1015.9 1013.8 +14.8
09 18.09 нст 1 1500 м в посл. час туман 10/10 60 м
[St]
+15.4 +15.4 100 +16 +16 1016.7 1014.7
12 18.09 З 2 6000 м дымка {туман} 10/10 30 м
[St]
+16.0 +15.7 98 +16 +16 1017.2 1015.1
15 18.09 СЗ 3 6000 м дымка 10/10 60 м
[St]
+16.8 +15.5 92 +17 +17 1016.7 1014.7
18 18.09 С 3 6000 м дымка 10/10 60 м
[St]
+16.0 +15.4 96 +15 +15 1016.6 1014.5 +17.8
21 18.09 нст 1 600 м туман 10/10 60 м
[St]
+15.4 +15.1 98 +16 +16 1018.0 1015.9
00 19.09 С 1 5000 м дымка {снег} 10/10 60 м
[St]
+15.6 +15.3 98 +16 +16 1017.8 1015.7
03 19.09 нст 1 4000 м дымка 10/10 60 м
[St]
+15.6 +15.3 98 +16 +16 1016.8 1014.8
06 19.09 С 1 8000 м дымка 10/10 60 м
[St]
+15.6 +15.3 98 +16 +16 1016.7 1014.7 +15.2
09 19.09 нст 1 10 км 10/10 90 м
[St]
+16.2 +15.6 96 +17 +17 1017.4 1015.4
12 19.09 СЗ 2 10 км 10/10 150 м
[St]
+17.4 +15.2 87 +18 +18 1017.3 1015.3
15 19.09 нст 1 10 км 10/10 150 м
[St]
+18.8 +15.3 80 +21 +21 комфорт 1016.4 1014.4
18 19.09 СЗ 2 10 км 10/10 150 м
[St]
+17.0 +16.0 94 +17 +17 1016.1 1014.1 +18.8
21 19.09 нст 1 10 км 10/10 150 м
[St]
+17.0 +16.1 94 +18 +18 1016.9 1014.9
00 20.09 З 2 10 км 10/10 150 м
[St]
+16.8 +15.8 94 +17 +17 1014.7 1012.7

 

Местоположение метеостанции Овар (Португалия): широта 40.92 долгота -8.63 высота над уровнем моря 22 м.

В архиве по умолчанию представлена погода в Оваре за последнюю неделю. Архивные данные за месяц целиком и за предыдущие месяцы, начиная с января 2011 года, Вы можете получить, выбрав интересующий диапазон дат из раскрывающегося списка и нажав кнопку "Ввод!".


*Определитесь, кто Вы:
робот инопланетянин человек

Внимание! Время в таблицах - всемирное. Для получения местного времени необходимо прибавить поправку, которая равна 0 ч.

Смотрите также архив погоды в соседних городах и на ближайших метеорологических станциях:

Погода в Порту (Португалия) (35 км)
Погода в Визеу (Португалия) (67 км)
Погода в Виана-ду-Каштелу (Португалия) (80 км)
Погода в Вила-Реале (Португалия) (86 км)
Погода в Коимбре (Португалия) (87 км)
Погода в Обсерватории Penhas Douradas (Португалия) (107 км)
Погода в Монте-Реале (Португалия) (123 км)
Погода в Виго (Испания) (146 км)
Погода в Хинсо-де-Лимии (Испания) (149 км)
Погода в Кастело Бранко (Португалия) (156 км)

Пояснения к столбцам:

Ветер - указаны скорость ветра в м/с - средняя за 10 мин, порывы в срок и между сроками (в фигурных скобках) и направление, откуда дует ветер: С - северный, СВ - северо-восточный, В - восточный, ЮВ - юго-восточный, Ю - южный, ЮЗ - юго-западный, З - западный, СЗ - северо-западный.
Видимость - горизонтальная дальность видимости в метрах или километрах. При видимости от 1 до 10 км при отсутствии осадков обычно наблюдается дымка, при ухудшении видимости до 1 км и менее - туман. В сухую погоду видимость может ухудшаться дымом, пылью или мглою.
Явления - указаны атмосферные явления, наблюдавшиеся в срок или в последний час перед сроком; фигурными скобками обозначены явления, наблюдавшиеся между сроками (за 1-3 часа до срока); квадратными скобками обозначены град или гололедные отложения с указанием их диаметра в мм.
Облачность - указаны через наклонную черту общая и нижняя облачность в баллах и высота нижней границы облаков в метрах; квадратными скобками обозначены формы облаков: Ci - перистые, Cs - перисто-слоистые, Cc - перисто-кучевые, Ac - высококучевые, As - высокослоистые, Sc - слоисто-кучевые, Ns - слоисто-дождевые, Cu - кучевые, Cb - кучево-дождевые. Подробнее классификацию облаков см. в Атласе облаков (PDF).
T - Температура воздуха - температура, измеренная на высоте 2 м над землей.
Td - Температура точки росы - температура, при понижении до которой содержащийся в воздухе водяной пар достигнет насыщения.
f - Относительная влажность воздуха - влажноcть воздуха, измеренная на высоте 2 м над землей.
Te - Эффективная температура - температура, которую ощущает одетый по сезону человек в тени. Характеристика душности погоды. При расчете учитывается влияние влажности воздуха и скорости ветра на теплоощущения человека.
Tes - Эффективная температура на солнце - температура, которую ощущает человек, с поправкой на солнечный нагрев. Характеристика знойности погоды. Зависит от высоты солнца над горизонтом, облачности и скорости ветра. Ночью, в пасмурную погоду, а также при ветре 12 м/с и более поправка равна нулю.
P - Атмосферное давление - приведенное к уровню моря атмосферное давление.
Po - Атмосферное давление - измеренное на уровне метеостанции атмосферное давление.
Tmin - Минимальная температура - минимум температуры воздуха на высоте 2 м над землей.
Tmax - Максимальная температура - максимум температуры воздуха на высоте 2 м над землей.
R - Количество осадков - Количество выпавших осадков за период времени, мм. При наведении курсора мыши на число - период времени, за который выпало указанное количество осадков.
R24 - Количество осадков - Количество выпавших осадков за 24 часа, мм.
S - Снежный покров - Высота снежного покрова, см. При наведении курсора мыши на число - состояние снежного покрова и степень покрытия местности в баллах.